Location: *
(28.2408°N, 53.4600°E)
Time: 13:45:45
(UTC+00:00)

SPOT 3 Rocket - Pass Details

Date: 22 September 2019
Orbit: 779 x 794 km, 98.8° (Epoch: 16 October)

Event Time Altitude Azimuth Distance (km) Brightness Sun altitude
Exits shadow 16:28:37 66° 354° (N) 849 3.7 -28.1°
Drops below altitude 10° 16:33:01 10° 348° (NNW) 2,334 6.3 -29.0°
Sets 16:35:20 0° 348° (NNW) 3,265 7.1 -29.5°
